Terug naar catalogus

COSMOS 1000

ActiefMilitairPO
NORAD 10776·PAYLOAD·🇷🇺 Russia

Gelanceerd Mar 31, 1978 vanaf Plesetsk Cosmodrome

Loading…

Volgende Passages (komende 24 uur)

TLE

VersSource: Space-Track

Epoch: Sep 14, 2026, 19:14 UTC

1 10776U 78034A   26257.80152147  .00000044  00000-0  30259-4 0  9994
2 10776  82.9392 281.8014 0033206 254.2750 280.3779 13.75620908431688

Volg COSMOS 1000 in realtime met AllMySat

Download on the App Store